[[{"header":{"parameterUnit":"m.s-1","parameterCategory":2,"la1":30.2991,"la2":30.254,"lo1":-89.0895,"lo2":-89.0444,"dy":0.0017,"dx":0.0017,"nx":28,"ny":28,"refTime":"2023-04-25T21:00:00:Z","depth":"0","parameterNumber":2,"parameterNumberName":"U-component_of_CURRENTS"},"data":[0,0,0,0,0,0,0,0,0,0,0,0,0,0,0,0,0,0,0,0,0,0,0,0,0,0,0,0,0,0,0,0,0,0,0,0,0,0,0,0,0,0,0,0,0,0,0,0,0,0,0,0,0,0,0,0,0,0,0.1909,0.1911,0,0.2087,0.2089,0.2091,0.2073,0.207,0.2067,0.2065,0.2242,0.2249,0.2256,0,0,0,0,0,0,0,0,0,0,0,0,0,0.174,0.1742,0.1909,0.1911,0.1913,0.2086,0.2089,0.2091,0.2073,0.207,0.2067,0.2064,0.224,0.2248,0.2257,0,0,0,0,0,0,0,0,0,0,0,0,0,0.1853,0.1742,0.1908,0.1927,0.193,0.2086,0.2089,0.2092,0.2074,0.207,0.2066,0.2062,0.2237,0.2248,0.2258,0.2403,0,0,0.2291,0.2296,0,0,0,0,0,0,0,0,0.1846,0.1858,0.1922,0.1926,0.193,0.2055,0.2095,0.2196,0.2075,0.2017,0.2065,0.206,0.2184,0.2199,0.2238,0.2411,0.2418,0.2292,0.2298,0.2303,0.2306,0,0,0,0,0,0,0,0.1838,0.1852,0.1977,0.1925,0.193,0.1991,0.2,0.2114,0.2119,0.2022,0.2022,0.2046,0.2185,0.2228,0.2242,0.2421,0.2292,0.2301,0.2308,0.2312,0.2767,0.2772,0,0,0,0,0,0,0.1815,0.1844,0.1971,0.1983,0.188,0.1996,0.2007,0.2017,0.2118,0.213,0.2049,0.2044,0.2211,0.223,0.2248,0.2444,0.2303,0.2313,0.2319,0.2761,0.2768,0.2774,0,0,0,0,0,0,0.1811,0.1824,0.1964,0.192,0.1942,0.2002,0.2015,0.2023,0.2066,0.2139,0.2149,0.2082,0.2209,0.2233,0.2392,0.2449,0.2318,0.2328,0.2754,0.2763,0.2771,0.2822,0,0,0,0,0,0,0.1805,0.1821,0.1847,0.1918,0.1943,0.2072,0.2019,0.2029,0.2088,0.2083,0.2173,0.2184,0.2208,0.2376,0.2402,0.2461,0.2336,0.2747,0.2758,0.2768,0.2814,0.2832,0.2847,0,0,0,0,0,0.1798,0.1869,0.1846,0.1864,0.1967,0.2076,0.2097,0.2124,0.2093,0.2142,0.2214,0.2181,0.246,0.2391,0.242,0.2483,0.2742,0.2755,0.2767,0.2806,0.2828,0.2847,0,0,0,0,0,0,0.1834,0.1876,0.1852,0.1934,0.1995,0.2073,0.215,0.2144,0.224,0.2245,0.2274,0.2297,0.2458,0.2489,0.2411,0.2652,0.259,0.2609,0.2609,0.263,0.2647,0.2617,0.2345,0,0,0,0,0,0.1845,0.1893,0.1938,0.201,0.2045,0.2091,0.2145,0.2158,0.2242,0.2276,0.2339,0.2429,0.2542,0.2594,0.2707,0.2849,0.286,0.2909,0.2925,0.2939,0.2942,0.3025,0.3047,0.2816,0.2816,0.2815,0,0,0.1879,0.1914,0.194,0.2019,0.2074,0.2163,0.2116,0.2217,0.2291,0.2292,0.2442,0.2509,0.2603,0.276,0.283,0.2781,0.3017,0.2955,0.2964,0.2961,0.304,0.3062,0.3081,0.2824,0.2823,0.2821,0,0,0.2007,0.2003,0.2094,0.2139,0.2224,0.2251,0.2276,0.2361,0.24,0.2548,0.257,0.2675,0.2844,0.2913,0.2968,0.3159,0.3118,0.3186,0.3227,0.3309,0.3326,0.3341,0.3386,0.3405,0.3173,0.3173,0.3173,0,0.2055,0.2139,0.2147,0.2247,0.2289,0.2287,0.2385,0.2454,0.2578,0.2615,0.2607,0.2839,0.2918,0.3075,0.3137,0.319,0.321,0.3126,0.3322,0.3338,0.3352,0.3394,0.3414,0.3177,0.3177,0.3176,0.3176,0,0.2242,0.2296,0.2367,0.2454,0.2511,0.2599,0.2653,0.2715,0.2737,0.2778,0.2931,0.3042,0.3144,0.3201,0.3231,0.338,0.3352,0.3339,0.3245,0.3377,0.3415,0.3435,0.3183,0.3182,0.318,0.3179,0,0,0.237,0.2471,0.2488,0.2498,0.2605,0.2644,0.278,0.2862,0.2891,0.3015,0.3087,0.3286,0.3274,0.3341,0.3382,0.3455,0.359,0.3435,0.3437,0.3433,0.3742,0.3696,0.3713,0.3591,0.3595,0.3599,0.3723,0,0.2506,0.2652,0.2691,0.2793,0.2846,0.285,0.2939,0.3002,0.3055,0.3131,0.3223,0.3327,0.3349,0.3378,0.347,0.3569,0.3645,0.3556,0.3655,0.3658,0.3563,0.3736,0.3671,0.3775,0.3742,0.3745,0.3748,0,0.2677,0.2721,0.2841,0.2849,0.2874,0.2928,0.2959,0.3045,0.3147,0.3186,0.3283,0.3347,0.3505,0.3487,0.3698,0.3631,0.3701,0.376,0.3765,0.3714,0.3651,0.3646,0.3811,0.3699,0.3777,0.3775,0.3773,0,0.2694,0.281,0.2865,0.2884,0.2933,0.2952,0.2971,0.3048,0.3089,0.3209,0.3239,0.3415,0.3489,0.3632,0.3772,0.3738,0.3976,0.3937,0.3962,0.3957,0.392,0.3905,0.3949,0.4089,0.4089,0.4089,0.4088,0,0.2796,0.2823,0.2846,0.2859,0.2867,0.2912,0.2944,0.2976,0.3058,0.3106,0.3241,0.332,0.3528,0.3682,0.3803,0.3954,0.4005,0.4009,0.401,0.394,0.3926,0.3837,0.3775,0.4093,0.4092,0.4091,0.409,0,0.2805,0.2849,0.2867,0.288,0.2875,0.2862,0.2889,0.2899,0.2977,0.3053,0.3093,0.3275,0.3472,0.3669,0.3906,0.3969,0.4035,0.416,0.4048,0.4034,0.3917,0.3861,0.3779,0.3693,0.4208,0.4208,0.4208,0,0.2823,0.2838,0.2833,0.2806,0.2803,0.2797,0.2788,0.2851,0.2878,0.3022,0.3053,0.326,0.3402,0.3724,0.3932,0.4148,0.4027,0.4152,0.4091,0.3936,0.3877,0.3695,0.3614,0.4068,0.4067,0.4066,0.4065,0,0.2789,0.2784,0.2768,0.2731,0.2701,0.2692,0.2693,0.2709,0.2797,0.2867,0.2976,0.3101,0.3427,0.3638,0.3916,0.4046,0.3961,0.4134,0.4032,0.3833,0.3585,0.3492,0.3924,0.4057,0.4057,0.4058,0.4058,0.4059,0.271,0.2681,0.265,0.2601,0.258,0.2555,0.2524,0.2568,0.2604,0.2676,0.2857,0.3003,0.3349,0.3747,0.3852,0.3974,0.3899,0.3907,0.3873,0.3715,0.3569,0.3961,0.4049,0.405,0.4051,0.4051,0.4052,0,0.2566,0.2545,0.2508,0.2442,0.2382,0.2421,0.2418,0.2392,0.2404,0.2555,0.2652,0.2987,0.3231,0.3516,0.38,0.3737,0.3614,0.3639,0.3391,0.3343,0.3773,0.3703,0.3651,0.3651,0.3651,0.3651,0.3651,0.3651,0.248,0.2396,0.2384,0.2243,0.2206,0.2113,0.2095,0.2101,0.2188,0.2316,0.2483,0.2674,0.3088,0.3459,0.3555,0.3511,0.3254,0.3131,0.307,0.3399,0.342,0.344,0.336,0.3236,0.3236,0.2552,0.2547,0.2543]},{"header":{"parameterUnit":"m.s-1","parameterCategory":2,"la1":30.2991,"la2":30.254,"lo1":-89.0895,"lo2":-89.0444,"dy":0.0017,"dx":0.0017,"nx":28,"ny":28,"refTime":"2023-04-25T21:00:00:Z","depth":"0","parameterNumber":3,"parameterNumberName":"V-component_of_CURRENTS"},"data":[0,0,0,0,0,0,0,0,0,0,0,0,0,0,0,0,0,0,0,0,0,0,0,0,0,0,0,0,0,0,0,0,0,0,0,0,0,0,0,0,0,0,0,0,0,0,0,0,0,0,0,0,0,0,0,0,0,0,0.0429,0.0432,0,0.0655,0.0657,0.066,0.0671,0.0668,0.0666,0.0663,0.0761,0.0766,0.077,0,0,0,0,0,0,0,0,0,0,0,0,0,0.0111,0.0116,0.0429,0.0432,0.0435,0.0654,0.0657,0.066,0.0671,0.0668,0.0665,0.0662,0.0759,0.0765,0.0771,0,0,0,0,0,0,0,0,0,0,0,0,0,0.0283,0.0118,0.0428,0.0468,0.0473,0.0654,0.0657,0.0661,0.0672,0.0668,0.0664,0.0661,0.0757,0.0764,0.0772,0.0894,0,0,0.0794,0.0798,0,0,0,0,0,0,0,0,0.0273,0.0294,0.0459,0.0465,0.0472,0.0632,0.0581,0.0733,0.0673,0.0595,0.0663,0.0659,0.0709,0.072,0.0772,0.0898,0.0902,0.0795,0.08,0.0803,0.0805,0,0,0,0,0,0,0,0.0261,0.0285,0.0517,0.0462,0.047,0.0509,0.0528,0.0611,0.0668,0.0602,0.0604,0.0632,0.0711,0.0765,0.0774,0.0904,0.0795,0.0801,0.0806,0.0809,0.1135,0.1139,0,0,0,0,0,0,0.0235,0.0274,0.051,0.0524,0.0362,0.0518,0.0539,0.0583,0.067,0.0681,0.0635,0.0631,0.0754,0.0765,0.0777,0.0933,0.0803,0.081,0.0814,0.1131,0.1136,0.1141,0,0,0,0,0,0,0.0228,0.0255,0.0501,0.0403,0.0437,0.0527,0.0577,0.059,0.0646,0.0696,0.0703,0.0677,0.0751,0.0766,0.0871,0.0935,0.0813,0.082,0.1126,0.1132,0.1138,0.124,0,0,0,0,0,0,0.0218,0.0251,0.0288,0.0403,0.0442,0.0633,0.0581,0.0597,0.067,0.0668,0.0736,0.074,0.0749,0.086,0.0878,0.0943,0.0826,0.1121,0.1129,0.1136,0.1231,0.1249,0.1264,0,0,0,0,0,0.0206,0.0305,0.0289,0.0318,0.0485,0.0638,0.0664,0.0711,0.0675,0.0739,0.077,0.0738,0.0922,0.0871,0.0891,0.0959,0.1117,0.1126,0.1136,0.1224,0.1245,0.1264,0,0,0,0,0,0,0.0211,0.0319,0.0303,0.0431,0.0521,0.064,0.0724,0.073,0.0811,0.08,0.0809,0.0821,0.0937,0.0947,0.089,0.1078,0.101,0.1024,0.107,0.109,0.1107,0.1068,0.0832,0,0,0,0,0,0.0219,0.0309,0.0401,0.0507,0.0555,0.0629,0.0696,0.0723,0.0804,0.0836,0.0882,0.0931,0.1002,0.1038,0.1111,0.1226,0.1157,0.128,0.1296,0.1309,0.1295,0.1226,0.1232,0.1172,0.1172,0.1171,0,0,0.025,0.0324,0.0373,0.0511,0.0586,0.0703,0.0663,0.0787,0.0876,0.0837,0.0983,0.1004,0.1049,0.1172,0.1223,0.118,0.1303,0.1321,0.1332,0.131,0.1236,0.1241,0.1245,0.1178,0.1177,0.1176,0,0,0.0384,0.0423,0.0539,0.0619,0.0734,0.0784,0.0816,0.0935,0.0978,0.1114,0.1095,0.1146,0.1288,0.131,0.134,0.1496,0.1398,0.1527,0.1574,0.1509,0.1511,0.1512,0.1462,0.1457,0.1526,0.1526,0.1526,0,0.0411,0.0559,0.0602,0.0731,0.0811,0.0819,0.0953,0.1024,0.1155,0.1171,0.1174,0.1304,0.1351,0.1433,0.1492,0.153,0.1466,0.1489,0.1522,0.1521,0.152,0.1468,0.1461,0.1532,0.1531,0.1531,0.153,0,0.0627,0.0729,0.082,0.0959,0.1052,0.1178,0.1252,0.1328,0.1354,0.1365,0.1452,0.1506,0.1543,0.1593,0.1603,0.1634,0.1586,0.1549,0.1451,0.153,0.1474,0.1465,0.1541,0.1538,0.1537,0.1535,0,0,0.0734,0.0925,0.0952,0.1018,0.1172,0.1265,0.1409,0.1502,0.1524,0.1605,0.1635,0.1758,0.1679,0.1708,0.1706,0.1675,0.165,0.1614,0.1607,0.1529,0.1497,0.1425,0.1408,0.1591,0.159,0.1589,0.1469,0,0.0884,0.1105,0.1187,0.1384,0.1491,0.1536,0.1651,0.1707,0.1728,0.1751,0.1729,0.1765,0.1752,0.1757,0.1721,0.1678,0.1626,0.1686,0.1462,0.1457,0.1351,0.1395,0.1374,0.126,0.1459,0.1458,0.1456,0,0.1068,0.1183,0.1383,0.1529,0.1582,0.1685,0.1785,0.1885,0.1878,0.1885,0.185,0.1801,0.1799,0.1761,0.1663,0.169,0.1596,0.1544,0.1537,0.1415,0.1366,0.1212,0.1235,0.1023,0.1441,0.1443,0.1444,0,0.1082,0.1318,0.1455,0.152,0.1691,0.1768,0.1845,0.1886,0.1935,0.192,0.1912,0.1854,0.1843,0.1722,0.1627,0.1627,0.1481,0.146,0.1298,0.1292,0.1203,0.1191,0.0957,0.1338,0.1338,0.1339,0.1339,0,0.1195,0.1308,0.1453,0.1524,0.1658,0.1768,0.1854,0.1921,0.1957,0.1966,0.1934,0.1935,0.1824,0.1728,0.1614,0.1433,0.1455,0.1298,0.1248,0.1247,0.1241,0.0994,0.0908,0.1334,0.1335,0.1336,0.1337,0,0.1196,0.1297,0.1449,0.1616,0.1661,0.1743,0.1874,0.1911,0.1962,0.1983,0.1985,0.1978,0.1885,0.1751,0.1579,0.1426,0.1133,0.1179,0.1198,0.1152,0.0799,0.0724,0.0473,0.0345,0.0978,0.0976,0.0974,0,0.1222,0.1294,0.1468,0.1526,0.1604,0.1714,0.1776,0.1889,0.1926,0.2005,0.2011,0.1964,0.1929,0.1668,0.1425,0.1185,0.1032,0.0958,0.0955,0.076,0.0639,0.0621,0.0531,0.0897,0.0895,0.0892,0.0891,0,0.126,0.1303,0.1405,0.1503,0.1589,0.1695,0.1792,0.1832,0.1944,0.1983,0.2034,0.2032,0.1834,0.1609,0.129,0.1112,0.08,0.0902,0.0686,0.0536,0.0514,0.0375,0.1009,0.0871,0.0873,0.0875,0.0876,0.0877,0.1253,0.131,0.1402,0.1494,0.1582,0.1673,0.1732,0.1821,0.19,0.1994,0.2032,0.2065,0.1791,0.1386,0.1097,0.0572,0.0627,0.0408,0.033,0.0328,0.0201,0.0793,0.0605,0.0605,0.0606,0.0606,0.0606,0,0.1243,0.13,0.1387,0.1492,0.1555,0.1624,0.174,0.1789,0.1856,0.199,0.2059,0.198,0.1543,0.1144,0.0483,0.0083,-0.0026,-0.0136,-0.0173,-0.0242,0.026,0.0249,-0.0009,-0.0008,-0.0008,-0.0008,-0.0008,-0.0008,0.1233,0.1294,0.1338,0.143,0.1498,0.1579,0.164,0.1732,0.1842,0.196,0.203,0.2131,0.1882,0.0644,-0.0227,-0.0418,-0.0679,-0.0716,-0.0876,-0.0535,-0.0489,-0.0446,-0.048,-0.0886,-0.0888,-0.133,-0.1335,-0.1339]}],[{"header":{"parameterUnit":"m.s-1","parameterCategory":2,"la1":30.2991,"la2":30.254,"lo1":-89.0895,"lo2":-89.0444,"dy":0.0017,"dx":0.0017,"nx":28,"ny":28,"refTime":"2023-04-25T21:00:00:Z","depth":"2","parameterNumber":2,"parameterNumberName":"U-component_of_CURRENTS"},"data":[0,0,0,0,0,0,0,0,0,0,0,0,0,0,0,0,0,0,0,0,0,0,0,0,0,0,0,0,0,0,0,0,0,0,0,0,0,0,0,0,0,0,0,0,0,0,0,0,0,0,0,0,0,0,0,0,0,0,0.2085,0.2087,0,0.2171,0.2171,0.2171,0.2133,0.2132,0.2131,0.213,0.2077,0.2076,0.2076,0,0,0,0,0,0,0,0,0,0,0,0,0,0.1866,0.1869,0.2085,0.2087,0.2089,0.2171,0.2171,0.2171,0.2133,0.2132,0.2131,0.213,0.2077,0.2076,0.2076,0,0,0,0,0,0,0,0,0,0,0,0,0,0.1945,0.187,0.2084,0.2089,0.2092,0.2171,0.2171,0.2171,0.2133,0.2132,0.213,0.2129,0.2077,0.2076,0.2076,0.21,0,0,0.2073,0.2073,0,0,0,0,0,0,0,0,0.1941,0.1952,0.2086,0.2089,0.2092,0.2151,0.2075,0.2144,0.2134,0.2104,0.213,0.2128,0.2098,0.2095,0.2099,0.2097,0.2095,0.2073,0.2073,0.2072,0.2072,0,0,0,0,0,0,0,0.1935,0.1948,0.2106,0.2089,0.2093,0.2081,0.2089,0.2087,0.2096,0.2107,0.2107,0.2137,0.2096,0.21,0.2097,0.2094,0.2073,0.2072,0.2072,0.2072,0.2086,0.2087,0,0,0,0,0,0,0.1954,0.1943,0.2104,0.211,0.2025,0.2087,0.2096,0.2123,0.2099,0.2099,0.2139,0.2136,0.2102,0.2098,0.2095,0.2169,0.2072,0.2072,0.2071,0.2085,0.2086,0.2087,0,0,0,0,0,0,0.1948,0.1967,0.21,0.2038,0.2056,0.2094,0.2124,0.2126,0.2153,0.2127,0.2121,0.2168,0.21,0.2096,0.2117,0.2164,0.2071,0.207,0.2084,0.2086,0.2087,0.2287,0,0,0,0,0,0,0.1941,0.1964,0.1988,0.204,0.2061,0.2192,0.2127,0.2129,0.2179,0.2175,0.215,0.2142,0.2099,0.2119,0.2117,0.2162,0.207,0.2083,0.2085,0.2086,0.2279,0.2294,0.2308,0,0,0,0,0,0.1933,0.2011,0.1988,0.2009,0.2093,0.2197,0.2207,0.2218,0.2182,0.2227,0.219,0.2144,0.2125,0.2121,0.2118,0.2163,0.2083,0.2084,0.2086,0.2272,0.2291,0.2308,0,0,0,0,0,0,0.1954,0.2017,0.1993,0.2088,0.2146,0.2196,0.2251,0.2243,0.2251,0.2235,0.2178,0.2171,0.22,0.215,0.2146,0.2163,0.2088,0.2089,0.223,0.2247,0.2262,0.2254,0.2069,0,0,0,0,0,0.1962,0.2018,0.2077,0.2154,0.2188,0.2212,0.2252,0.226,0.2281,0.2283,0.2271,0.223,0.2203,0.2203,0.2179,0.2211,0.2146,0.2225,0.2239,0.2253,0.2239,0.2197,0.2208,0.2094,0.2094,0.2094,0,0,0.1994,0.2036,0.2069,0.2158,0.2194,0.2254,0.2231,0.232,0.2345,0.2276,0.2317,0.2296,0.2221,0.225,0.2256,0.2219,0.2255,0.2255,0.2268,0.2246,0.22,0.2212,0.2222,0.2095,0.2095,0.2095,0,0,0.2099,0.2121,0.2197,0.2241,0.2318,0.2325,0.2358,0.2424,0.243,0.248,0.2411,0.242,0.2412,0.2368,0.2334,0.2411,0.2334,0.2406,0.2484,0.2446,0.2456,0.2463,0.2423,0.2425,0.2414,0.2415,0.2415,0,0.2131,0.2198,0.2244,0.2319,0.2343,0.2357,0.2417,0.2443,0.2503,0.2506,0.2514,0.2483,0.2455,0.2428,0.2466,0.2447,0.2412,0.2438,0.2469,0.2474,0.2479,0.2435,0.2434,0.2424,0.2423,0.2422,0.2421,0,0.2284,0.2307,0.2369,0.2422,0.2477,0.2536,0.2569,0.2615,0.2619,0.2624,0.2648,0.2626,0.2601,0.2604,0.2569,0.258,0.2544,0.2501,0.2437,0.2503,0.2451,0.2448,0.2438,0.2435,0.2432,0.243,0,0,0.2418,0.245,0.2467,0.2446,0.2509,0.2565,0.2619,0.2653,0.267,0.2726,0.2736,0.2741,0.2745,0.2704,0.2672,0.2654,0.2691,0.2617,0.2611,0.2598,0.2618,0.2672,0.2672,0.2672,0.2672,0.2672,0.2581,0,0.2494,0.2562,0.2587,0.2627,0.2638,0.265,0.2698,0.2735,0.2756,0.2787,0.2759,0.2779,0.2773,0.2794,0.2777,0.2698,0.2686,0.2719,0.2534,0.2527,0.2586,0.2671,0.2444,0.2352,0.2577,0.2576,0.2575,0,0.2604,0.2623,0.2657,0.2632,0.2655,0.271,0.2741,0.2789,0.2822,0.2855,0.2873,0.2858,0.2853,0.2841,0.2755,0.2786,0.2728,0.2666,0.266,0.2629,0.2575,0.2311,0.2335,0.2568,0.2568,0.2569,0.2569,0,0.2594,0.2641,0.2633,0.264,0.2677,0.272,0.2756,0.2818,0.283,0.291,0.2925,0.2921,0.2907,0.285,0.2776,0.2774,0.2657,0.262,0.2599,0.26,0.2324,0.2304,0.2554,0.2554,0.2554,0.2554,0.2555,0,0.2582,0.2591,0.2634,0.2639,0.2688,0.2733,0.2784,0.2853,0.2888,0.2909,0.2965,0.2951,0.2915,0.2847,0.2782,0.2698,0.2665,0.2625,0.2591,0.2392,0.238,0.2484,0.2478,0.2551,0.2552,0.2552,0.2553,0,0.253,0.2545,0.2566,0.2635,0.2671,0.2724,0.2787,0.2808,0.289,0.2914,0.2946,0.2947,0.291,0.2848,0.2735,0.2701,0.2617,0.2586,0.2377,0.2326,0.2575,0.2579,0.2554,0.2556,0.2557,0.2558,0.2559,0,0.2473,0.2474,0.2573,0.2601,0.2641,0.2709,0.2749,0.2827,0.2842,0.2895,0.2887,0.2878,0.2848,0.2728,0.2647,0.2559,0.2601,0.2363,0.2338,0.2611,0.258,0.2582,0.2584,0.2027,0.2023,0.202,0.2018,0,0.2393,0.2456,0.2485,0.2559,0.2618,0.2645,0.271,0.2697,0.2788,0.2789,0.2766,0.2741,0.2681,0.2501,0.2474,0.2384,0.238,0.231,0.2588,0.212,0.2123,0.2091,0.2107,0.1992,0.1994,0.1996,0.1998,0.1999,0.2354,0.2379,0.2442,0.2497,0.2561,0.2578,0.2565,0.2581,0.2563,0.253,0.2582,0.2459,0.2394,0.2201,0.2133,0.2104,0.2243,0.2153,0.2156,0.2163,0.2178,0.2189,0.207,0.2072,0.2075,0.2077,0.2079,0,0.2287,0.2339,0.2364,0.2435,0.2443,0.2527,0.2533,0.2455,0.2392,0.2321,0.2281,0.1945,0.186,0.1826,0.1747,0.1801,0.1703,0.1752,0.1593,0.1621,0.1645,0.1628,0.1376,0.1374,0.1373,0.1371,0,0,0.2258,0.2269,0.2281,0.2294,0.2353,0.2353,0.2339,0.2219,0.212,0.1839,0.1696,0.1731,0.1739,0.1489,0.1492,0.1447,0.1508,0.1384,0.194,0.1776,0.1798,0.1869,0.1876,0,0,0,0,0]},{"header":{"parameterUnit":"m.s-1","parameterCategory":2,"la1":30.2991,"la2":30.254,"lo1":-89.0895,"lo2":-89.0444,"dy":0.0017,"dx":0.0017,"nx":28,"ny":28,"refTime":"2023-04-25T21:00:00:Z","depth":"2","parameterNumber":3,"parameterNumberName":"V-component_of_CURRENTS"},"data":[0,0,0,0,0,0,0,0,0,0,0,0,0,0,0,0,0,0,0,0,0,0,0,0,0,0,0,0,0,0,0,0,0,0,0,0,0,0,0,0,0,0,0,0,0,0,0,0,0,0,0,0,0,0,0,0,0,0,-0.0132,-0.0135,0,-0.0459,-0.0463,-0.0467,-0.0559,-0.0557,-0.0555,-0.0553,-0.0586,-0.0589,-0.0592,0,0,0,0,0,0,0,0,0,0,0,0,0,-0.0082,-0.0079,-0.0131,-0.0135,-0.0139,-0.0458,-0.0463,-0.0468,-0.0559,-0.0557,-0.0554,-0.0552,-0.0585,-0.0588,-0.0592,0,0,0,0,0,0,0,0,0,0,0,0,0,-0.0227,-0.0078,-0.0131,-0.0221,-0.0232,-0.0457,-0.0463,-0.0469,-0.056,-0.0557,-0.0553,-0.055,-0.0584,-0.0588,-0.0592,-0.0682,0,0,-0.0605,-0.0607,0,0,0,0,0,0,0,0,-0.0218,-0.0229,-0.0204,-0.0215,-0.0228,-0.0462,-0.0458,-0.0525,-0.0561,-0.0439,-0.0553,-0.0549,-0.0517,-0.0527,-0.0605,-0.0684,-0.0685,-0.0606,-0.0608,-0.061,-0.0611,0,0,0,0,0,0,0,-0.0207,-0.0218,-0.0264,-0.0208,-0.0223,-0.0415,-0.0428,-0.0475,-0.0489,-0.0449,-0.0456,-0.0488,-0.0522,-0.0601,-0.0605,-0.0686,-0.0606,-0.0609,-0.0612,-0.0614,-0.0884,-0.0888,0,0,0,0,0,0,-0.0137,-0.0206,-0.0254,-0.0274,-0.0212,-0.0416,-0.0431,-0.0393,-0.0495,-0.0509,-0.0491,-0.0491,-0.0595,-0.06,-0.0606,-0.067,-0.061,-0.0614,-0.0617,-0.088,-0.0885,-0.089,0,0,0,0,0,0,-0.0134,-0.0136,-0.024,-0.025,-0.0276,-0.0416,-0.0376,-0.0401,-0.0457,-0.0529,-0.0537,-0.0516,-0.0592,-0.06,-0.0634,-0.0672,-0.0616,-0.062,-0.0874,-0.0881,-0.0888,-0.0826,0,0,0,0,0,0,-0.013,-0.0131,-0.01,-0.0242,-0.0272,-0.0358,-0.0379,-0.0409,-0.0481,-0.0485,-0.0554,-0.0557,-0.0591,-0.0627,-0.0638,-0.0677,-0.0623,-0.0868,-0.0877,-0.0885,-0.0822,-0.083,-0.0837,0,0,0,0,0,-0.0126,-0.0099,-0.0094,-0.0103,-0.0214,-0.0359,-0.0395,-0.0491,-0.0485,-0.0525,-0.0559,-0.0553,-0.0692,-0.0632,-0.0644,-0.0685,-0.0864,-0.0875,-0.0885,-0.0819,-0.0828,-0.0836,0,0,0,0,0,0,-0.0078,-0.011,-0.0107,-0.009,-0.0202,-0.0373,-0.0422,-0.0482,-0.0556,-0.0517,-0.058,-0.0588,-0.0654,-0.069,-0.0624,-0.0806,-0.0792,-0.0805,-0.0738,-0.0747,-0.0754,-0.069,-0.0627,0,0,0,0,0,-0.0042,-0.0009,-0.0108,-0.01,-0.0137,-0.0271,-0.0343,-0.0391,-0.0476,-0.0507,-0.0556,-0.0623,-0.0723,-0.0737,-0.0821,-0.0881,-0.0894,-0.0937,-0.0944,-0.0949,-0.0916,-0.0979,-0.0985,-0.0924,-0.0924,-0.0924,0,0,-0.0019,-0.0038,-0.0019,-0.0088,-0.017,-0.0269,-0.0306,-0.0379,-0.0455,-0.049,-0.057,-0.0637,-0.0752,-0.0842,-0.0876,-0.0855,-0.0982,-0.0962,-0.0964,-0.0928,-0.099,-0.0995,-0.0999,-0.0931,-0.093,-0.0929,0,0,-0.0032,0.0032,0.0014,-0.006,-0.0155,-0.0238,-0.0246,-0.0376,-0.0414,-0.0491,-0.0572,-0.0634,-0.0759,-0.0859,-0.0928,-0.1026,-0.1028,-0.1085,-0.1038,-0.1101,-0.1103,-0.1106,-0.1132,-0.1137,-0.1072,-0.1072,-0.1072,0,-0.0016,-0.0039,-0.0033,-0.0105,-0.0171,-0.0216,-0.0304,-0.0371,-0.0495,-0.0517,-0.0486,-0.0707,-0.0772,-0.0935,-0.0974,-0.1031,-0.1053,-0.0976,-0.1098,-0.1101,-0.1104,-0.1131,-0.1137,-0.107,-0.107,-0.1071,-0.1071,0,-0.0093,-0.0108,-0.013,-0.0204,-0.027,-0.0338,-0.0411,-0.0441,-0.0451,-0.0519,-0.0611,-0.0702,-0.0817,-0.0893,-0.0946,-0.1058,-0.1063,-0.11,-0.1043,-0.1104,-0.1132,-0.1139,-0.1068,-0.1068,-0.1069,-0.1069,0,0,-0.0054,-0.0165,-0.0167,-0.022,-0.0313,-0.0375,-0.0436,-0.0536,-0.0546,-0.0605,-0.0661,-0.0819,-0.0805,-0.0887,-0.0981,-0.1028,-0.1071,-0.1051,-0.1055,-0.1015,-0.1177,-0.1068,-0.1065,-0.1116,-0.1117,-0.1118,-0.1184,0,-0.0135,-0.0288,-0.0303,-0.042,-0.051,-0.051,-0.0566,-0.0613,-0.0625,-0.0664,-0.0722,-0.0796,-0.0832,-0.0853,-0.0913,-0.1059,-0.1087,-0.1047,-0.1177,-0.1179,-0.1024,-0.1069,-0.0999,-0.1041,-0.1191,-0.1193,-0.1193,0,-0.0245,-0.0314,-0.0464,-0.0523,-0.0543,-0.0578,-0.0604,-0.065,-0.068,-0.0669,-0.0702,-0.0744,-0.0851,-0.0839,-0.102,-0.0989,-0.1053,-0.1132,-0.1138,-0.1047,-0.1082,-0.1014,-0.1048,-0.1205,-0.1204,-0.1203,-0.1203,0,-0.0314,-0.0424,-0.0538,-0.0571,-0.0642,-0.0626,-0.062,-0.0634,-0.0621,-0.0643,-0.0615,-0.074,-0.0773,-0.0888,-0.1004,-0.1016,-0.1167,-0.1219,-0.1178,-0.1171,-0.1138,-0.1125,-0.1297,-0.1297,-0.1297,-0.1297,-0.1297,0,-0.0452,-0.0526,-0.0545,-0.0597,-0.0598,-0.062,-0.0586,-0.0579,-0.0554,-0.0529,-0.0585,-0.0609,-0.0776,-0.0876,-0.0992,-0.1082,-0.1153,-0.1149,-0.1177,-0.112,-0.1105,-0.1273,-0.1269,-0.1299,-0.1299,-0.1298,-0.1298,0,-0.0566,-0.0627,-0.0682,-0.0671,-0.0649,-0.0612,-0.0512,-0.0485,-0.0452,-0.042,-0.0411,-0.0517,-0.0624,-0.0768,-0.097,-0.104,-0.1164,-0.1171,-0.1059,-0.1069,-0.1131,-0.1125,-0.1146,-0.1143,-0.114,-0.1138,-0.1136,0,-0.0687,-0.0737,-0.067,-0.0623,-0.0594,-0.0529,-0.048,-0.043,-0.0386,-0.0372,-0.0367,-0.0439,-0.0474,-0.0694,-0.0828,-0.0957,-0.1066,-0.0997,-0.0998,-0.1088,-0.1115,-0.1114,-0.1111,-0.0958,-0.0954,-0.0952,-0.095,0,-0.08,-0.0729,-0.0718,-0.0609,-0.0527,-0.0471,-0.038,-0.0351,-0.0296,-0.0251,-0.0252,-0.0268,-0.0388,-0.0496,-0.0623,-0.0738,-0.0969,-0.094,-0.1106,-0.0974,-0.0907,-0.0934,-0.0939,-0.0925,-0.0928,-0.093,-0.0931,-0.0932,-0.079,-0.0745,-0.0657,-0.0555,-0.0458,-0.0392,-0.0349,-0.0276,-0.0206,-0.005,-0.0109,-0.0013,-0.017,-0.0233,-0.0449,-0.0679,-0.0716,-0.0823,-0.0834,-0.0848,-0.0782,-0.071,-0.0678,-0.0679,-0.068,-0.0681,-0.0681,0,-0.0757,-0.0689,-0.0606,-0.0474,-0.0374,-0.0313,-0.0266,-0.0202,-0.0108,0.0105,0.0239,0.0237,0.0148,-0.0071,-0.0343,-0.0527,-0.0593,-0.0626,-0.0689,-0.071,-0.0729,-0.0661,-0.0524,-0.0524,-0.0524,-0.0524,0,0,-0.0716,-0.0634,-0.0591,-0.0422,-0.0299,-0.0188,-0.0152,-0.0048,0.0091,0.0341,0.0516,0.0708,0.0344,0.0202,-0.0102,-0.0319,-0.0468,-0.0354,-0.0455,-0.0513,-0.0529,-0.0812,-0.0723,0,0,0,0,0]}],[{"header":{"parameterUnit":"m.s-1","parameterCategory":2,"la1":30.2991,"la2":30.254,"lo1":-89.0895,"lo2":-89.0444,"dy":0.0017,"dx":0.0017,"nx":28,"ny":28,"refTime":"2023-04-25T21:00:00:Z","depth":"4","parameterNumber":2,"parameterNumberName":"U-component_of_CURRENTS"},"data":[0,0,0,0,0,0,0,0,0,0,0,0,0,0,0,0,0,0,0,0,0,0,0,0,0,0,0,0,0,0,0,0,0,0,0,0,0,0,0,0,0,0,0,0,0,0,0,0,0,0,0,0,0,0,0,0,0,0,0.0652,0.0652,0,0.0702,0.0703,0.0704,0.0818,0.082,0.0822,0.0824,0.1129,0.1135,0.1141,0,0,0,0,0,0,0,0,0,0,0,0,0,0.0555,0.0556,0.0652,0.0652,0.0653,0.0702,0.0703,0.0704,0.0817,0.082,0.0823,0.0825,0.1127,0.1134,0.1141,0,0,0,0,0,0,0,0,0,0,0,0,0,0.0601,0.0557,0.0652,0.0715,0.0721,0.0702,0.0703,0.0704,0.0817,0.082,0.0824,0.0827,0.1125,0.1134,0.1142,0.113,0,0,0.117,0.1174,0,0,0,0,0,0,0,0,0.0598,0.0605,0.0705,0.071,0.0717,0.0757,0.078,0.0859,0.0816,0.0781,0.0825,0.0828,0.1025,0.1042,0.1042,0.1144,0.1158,0.1171,0.1176,0.118,0.1183,0,0,0,0,0,0,0,0.0595,0.0603,0.0673,0.0705,0.0713,0.0707,0.0718,0.0794,0.0889,0.0785,0.0793,0.0796,0.1031,0.1033,0.1051,0.1162,0.1171,0.1179,0.1184,0.1188,0.1421,0.1421,0,0,0,0,0,0,0.0589,0.06,0.0671,0.0674,0.0664,0.0706,0.0719,0.0741,0.0883,0.0905,0.0793,0.0801,0.1016,0.104,0.1062,0.1199,0.118,0.1188,0.1194,0.142,0.1421,0.1422,0,0,0,0,0,0,0.0587,0.0595,0.0669,0.0636,0.0645,0.0705,0.0728,0.074,0.084,0.0886,0.0915,0.0892,0.1019,0.105,0.1196,0.1208,0.1193,0.1201,0.1419,0.142,0.1421,0.1383,0,0,0,0,0,0,0.0584,0.0595,0.0637,0.0636,0.0647,0.0722,0.0725,0.0739,0.083,0.0844,0.0979,0.1004,0.1024,0.1182,0.1205,0.122,0.1208,0.1418,0.1419,0.1421,0.1384,0.1383,0.1383,0,0,0,0,0,0.0581,0.0607,0.0639,0.0649,0.0695,0.0724,0.0731,0.0782,0.0833,0.0885,0.0971,0.1005,0.1206,0.1192,0.1218,0.1235,0.1417,0.1419,0.1421,0.1384,0.1383,0.1383,0,0,0,0,0,0,0.0604,0.0621,0.0657,0.0697,0.0743,0.0745,0.0778,0.0835,0.0937,0.0964,0.1039,0.107,0.1186,0.123,0.1212,0.1303,0.1308,0.1315,0.1271,0.1271,0.1271,0.124,0.1215,0,0,0,0,0,0.0622,0.0644,0.0678,0.0719,0.0737,0.0783,0.0815,0.0852,0.0917,0.0969,0.1053,0.1132,0.1191,0.1257,0.131,0.1393,0.1406,0.1413,0.1412,0.1412,0.1403,0.1421,0.142,0.1427,0.1427,0.1427,0,0,0.0636,0.0653,0.0669,0.0725,0.075,0.0778,0.0814,0.0867,0.0914,0.0986,0.1098,0.115,0.1215,0.1276,0.1331,0.1334,0.142,0.1414,0.1413,0.1405,0.1423,0.1422,0.1421,0.1429,0.1428,0.1428,0,0,0.0629,0.0699,0.0698,0.0741,0.079,0.0816,0.0862,0.0912,0.0971,0.1063,0.1107,0.118,0.1297,0.1314,0.1343,0.1387,0.1415,0.1413,0.1395,0.1413,0.1411,0.141,0.1433,0.1435,0.1415,0.1415,0.1415,0,0.0653,0.067,0.0711,0.0726,0.0765,0.085,0.0878,0.0931,0.1033,0.1076,0.1106,0.1229,0.1292,0.1349,0.134,0.1383,0.1402,0.139,0.1409,0.1408,0.1408,0.1432,0.1433,0.1413,0.1413,0.1413,0.1414,0,0.062,0.0673,0.068,0.0727,0.0781,0.0825,0.0892,0.0972,0.105,0.1087,0.1184,0.1235,0.1305,0.1322,0.1345,0.1374,0.1392,0.1401,0.1402,0.1404,0.143,0.1433,0.1411,0.1411,0.1412,0.1412,0,0,0.0566,0.0642,0.0652,0.0701,0.0796,0.0834,0.0915,0.1,0.1066,0.1136,0.1202,0.1257,0.1284,0.1317,0.1353,0.1358,0.1366,0.1375,0.1377,0.1383,0.1413,0.13,0.1292,0.138,0.1381,0.1381,0.1433,0,0.0542,0.0574,0.0622,0.07,0.0737,0.0846,0.0917,0.1008,0.109,0.1171,0.1215,0.1286,0.1286,0.1321,0.1322,0.1371,0.1371,0.1352,0.1422,0.1424,0.1311,0.129,0.1381,0.1435,0.1436,0.1436,0.1437,0,0.0479,0.0525,0.0582,0.0711,0.0737,0.0806,0.0951,0.102,0.1135,0.1192,0.1247,0.1294,0.1336,0.1324,0.1373,0.1366,0.1377,0.1392,0.1395,0.13,0.1314,0.1434,0.1442,0.1441,0.1441,0.1441,0.144,0,0.0401,0.0501,0.0562,0.0606,0.0747,0.0818,0.0909,0.1032,0.1112,0.1212,0.1269,0.1316,0.1376,0.1375,0.1411,0.1399,0.1453,0.1448,0.1353,0.1348,0.1453,0.1453,0.1451,0.1451,0.1451,0.1451,0.1451,0,0.0345,0.0397,0.0549,0.0582,0.0691,0.0794,0.0913,0.1002,0.113,0.1188,0.1278,0.1295,0.139,0.1435,0.1424,0.1398,0.147,0.1334,0.1341,0.1439,0.1437,0.1455,0.1455,0.1453,0.1452,0.1452,0.1452,0,0.0247,0.0336,0.0415,0.0583,0.0655,0.0731,0.0937,0.0999,0.1134,0.121,0.1244,0.1336,0.1346,0.1433,0.1461,0.1431,0.1409,0.1383,0.1499,0.1515,0.1287,0.1285,0.1259,0.1256,0.1252,0.125,0.1247,0,0.0204,0.0231,0.0409,0.0478,0.0571,0.0719,0.0809,0.0982,0.102,0.1172,0.1156,0.1257,0.1285,0.1274,0.1325,0.1342,0.1321,0.1348,0.1274,0.1251,0.1262,0.1265,0.1267,0.1242,0.1241,0.124,0.124,0,0.0129,0.0193,0.0264,0.0402,0.0519,0.0634,0.0755,0.0785,0.0927,0.1074,0.1066,0.1107,0.1133,0.1147,0.1227,0.1204,0.1345,0.1313,0.1319,0.1249,0.1231,0.1245,0.1251,0.1228,0.123,0.1231,0.1232,0,0.0091,0.0112,0.021,0.0335,0.0456,0.051,0.0593,0.0654,0.0741,0.0901,0.086,0.096,0.1066,0.1068,0.1079,0.1118,0.1076,0.1066,0.1083,0.1097,0.1018,0.0969,0.0875,0,0,0,0,0,0.0075,0.0085,0.0151,0.0257,0.0356,0.0441,0.0539,0.0601,0.0722,0.0694,0.0803,0.0799,0.0861,0.0878,0.088,0.096,0.1063,0.0956,0.1054,0.1166,0.1179,0.1101,0,0,0,0,0,0,0.0057,0.0102,0.0113,0.0176,0.0235,0.0327,0.0387,0.046,0.044,0.0577,0.0592,0.075,0.0788,0.0859,0.0864,0.0882,0.0927,0.1037,0.1035,0.1158,0.117,0.1181,0.1105,0,0,0,0,0]},{"header":{"parameterUnit":"m.s-1","parameterCategory":2,"la1":30.2991,"la2":30.254,"lo1":-89.0895,"lo2":-89.0444,"dy":0.0017,"dx":0.0017,"nx":28,"ny":28,"refTime":"2023-04-25T21:00:00:Z","depth":"4","parameterNumber":3,"parameterNumberName":"V-component_of_CURRENTS"},"data":[0,0,0,0,0,0,0,0,0,0,0,0,0,0,0,0,0,0,0,0,0,0,0,0,0,0,0,0,0,0,0,0,0,0,0,0,0,0,0,0,0,0,0,0,0,0,0,0,0,0,0,0,0,0,0,0,0,0,0.0134,0.0134,0,0.011,0.0109,0.0108,0.0045,0.0044,0.0043,0.0042,-0.0088,-0.009,-0.0093,0,0,0,0,0,0,0,0,0,0,0,0,0,0.0153,0.0152,0.0134,0.0134,0.0134,0.011,0.0109,0.0108,0.0045,0.0044,0.0042,0.0041,-0.0087,-0.009,-0.0093,0,0,0,0,0,0,0,0,0,0,0,0,0,0.0134,0.0152,0.0134,0.0102,0.01,0.011,0.0109,0.0108,0.0045,0.0044,0.0042,0.0041,-0.0086,-0.009,-0.0093,-0.0087,0,0,-0.0105,-0.0107,0,0,0,0,0,0,0,0,0.0135,0.0133,0.0107,0.0105,0.0102,0.0082,0.0068,0.0039,0.0045,0.0061,0.0042,0.004,-0.0037,-0.0045,-0.005,-0.0093,-0.0099,-0.0105,-0.0108,-0.0109,-0.011,0,0,0,0,0,0,0,0.0137,0.0134,0.012,0.0107,0.0104,0.0099,0.0094,0.0063,0.0016,0.006,0.0056,0.0061,-0.004,-0.0046,-0.0054,-0.0101,-0.0105,-0.0109,-0.0111,-0.0112,-0.0258,-0.026,0,0,0,0,0,0,0.0148,0.0135,0.0121,0.012,0.012,0.01,0.0095,0.0087,0.0018,0.0008,0.0062,0.0058,-0.0039,-0.005,-0.0059,-0.0158,-0.0109,-0.0113,-0.0115,-0.0257,-0.0259,-0.026,0,0,0,0,0,0,0.0148,0.0147,0.0122,0.0131,0.0128,0.0102,0.0093,0.0087,0.0051,0.0022,0.0009,0.003,-0.0041,-0.0054,-0.011,-0.016,-0.0114,-0.0118,-0.0255,-0.0257,-0.026,-0.029,0,0,0,0,0,0,0.0149,0.0146,0.0131,0.0131,0.0128,0.0121,0.0095,0.0088,0.006,0.0054,-0.0009,-0.0021,-0.0043,-0.0105,-0.0114,-0.0164,-0.0121,-0.0253,-0.0256,-0.0259,-0.0287,-0.0293,-0.0299,0,0,0,0,0,0.0149,0.0144,0.013,0.0128,0.0111,0.0122,0.0119,0.0093,0.006,0.0052,-0.0001,-0.0021,-0.0131,-0.0108,-0.0119,-0.0172,-0.0251,-0.0255,-0.0259,-0.0285,-0.0292,-0.0298,0,0,0,0,0,0,0.0122,0.0137,0.0122,0.0113,0.0113,0.0112,0.0105,0.0081,0.0035,0.0009,-0.003,-0.0045,-0.0117,-0.0134,-0.0107,-0.0223,-0.0199,-0.0205,-0.0215,-0.0223,-0.0228,-0.0182,-0.0124,0,0,0,0,0,0.0117,0.012,0.0128,0.0113,0.0121,0.0105,0.0098,0.0077,0.0048,0.0025,-0.003,-0.0088,-0.0134,-0.0169,-0.021,-0.0264,-0.0248,-0.0308,-0.0314,-0.0319,-0.029,-0.0306,-0.031,-0.0272,-0.0272,-0.0272,0,0,0.0086,0.0107,0.0094,0.0109,0.0107,0.013,0.0095,0.0082,0.0071,0.0018,-0.0044,-0.011,-0.0152,-0.0218,-0.0253,-0.0243,-0.0326,-0.0323,-0.0327,-0.0294,-0.031,-0.0314,-0.0317,-0.0275,-0.0274,-0.0274,0,0,0.0095,0.0064,0.0099,0.0109,0.0122,0.0116,0.0109,0.0083,0.0043,-0.002,-0.0064,-0.0142,-0.0233,-0.026,-0.0285,-0.034,-0.0353,-0.039,-0.0386,-0.0405,-0.0407,-0.0409,-0.0405,-0.0406,-0.0396,-0.0396,-0.0396,0,0.0053,0.0114,0.0103,0.0156,0.0162,0.0114,0.0145,0.011,0.005,0.0015,-0.0048,-0.0185,-0.0239,-0.028,-0.0322,-0.0351,-0.0362,-0.0358,-0.0409,-0.0411,-0.0412,-0.0407,-0.0408,-0.0398,-0.0397,-0.0397,-0.0397,0,0.0132,0.0155,0.0175,0.0227,0.022,0.0231,0.02,0.0149,0.0063,0.0018,-0.0088,-0.0177,-0.0256,-0.0308,-0.0344,-0.0391,-0.0398,-0.0411,-0.0384,-0.0417,-0.0411,-0.0411,-0.04,-0.04,-0.0399,-0.0399,0,0,0.0102,0.0209,0.0215,0.0253,0.0255,0.0262,0.0227,0.02,0.0168,0.0041,-0.001,-0.0139,-0.0226,-0.0257,-0.0329,-0.0362,-0.0411,-0.0409,-0.0409,-0.039,-0.045,-0.043,-0.0428,-0.0453,-0.0453,-0.0453,-0.0445,0,0.0167,0.0293,0.0311,0.0367,0.0418,0.0355,0.0333,0.0274,0.018,0.0106,-0.0012,-0.0103,-0.0192,-0.0272,-0.0319,-0.0388,-0.0412,-0.041,-0.0432,-0.0431,-0.0398,-0.0427,-0.0453,-0.0445,-0.0445,-0.0445,-0.0445,0,0.0271,0.0336,0.0428,0.046,0.047,0.0467,0.0408,0.0373,0.0265,0.0178,0.0062,-0.004,-0.0136,-0.0215,-0.0315,-0.0324,-0.0387,-0.0429,-0.043,-0.0389,-0.0411,-0.0405,-0.0445,-0.0445,-0.0445,-0.0445,-0.0445,0,0.0319,0.0416,0.0491,0.0505,0.0527,0.0507,0.0471,0.038,0.0353,0.0206,0.016,0.0024,-0.0055,-0.0156,-0.0286,-0.032,-0.0365,-0.0414,-0.043,-0.0429,-0.0432,-0.043,-0.045,-0.045,-0.045,-0.045,-0.045,0,0.0394,0.0456,0.0517,0.0549,0.058,0.0547,0.0531,0.0458,0.0386,0.0363,0.0188,0.0139,-0.0052,-0.012,-0.0241,-0.0327,-0.0331,-0.0413,-0.0425,-0.0449,-0.0449,-0.0432,-0.0431,-0.0449,-0.0449,-0.045,-0.045,0,0.0422,0.0494,0.0573,0.0602,0.0615,0.0599,0.0584,0.0576,0.0482,0.0446,0.0398,0.024,0.0108,-0.0022,-0.017,-0.0247,-0.0341,-0.0359,-0.0343,-0.0356,-0.0404,-0.0404,-0.0393,-0.0392,-0.0391,-0.0391,-0.039,0,0.0448,0.0506,0.0589,0.0627,0.0633,0.0636,0.0652,0.0601,0.0585,0.0508,0.0493,0.0368,0.0246,0.0072,-0.009,-0.0264,-0.0297,-0.0324,-0.0405,-0.0385,-0.0398,-0.04,-0.0401,-0.0389,-0.0389,-0.0389,-0.0389,0,0.0451,0.0492,0.0537,0.063,0.0672,0.0728,0.0725,0.0713,0.0654,0.0656,0.0544,0.0404,0.0283,0.0074,-0.0038,-0.0174,-0.0308,-0.0319,-0.0323,-0.0399,-0.0381,-0.0395,-0.0397,-0.0386,-0.0387,-0.0387,-0.0387,0,0.0428,0.045,0.0536,0.0591,0.0691,0.0736,0.0737,0.0721,0.071,0.062,0.0601,0.0425,0.0342,0.0126,0.0014,-0.0111,-0.0175,-0.0225,-0.0236,-0.024,-0.0215,-0.0171,-0.0108,0,0,0,0,0,0.0398,0.043,0.0495,0.0559,0.0665,0.0727,0.0771,0.0764,0.0738,0.0676,0.0627,0.0496,0.0276,0.0162,0.0036,0.0003,-0.0198,-0.0147,-0.0263,-0.0374,-0.0376,-0.0374,0,0,0,0,0,0,0.0385,0.0451,0.0475,0.054,0.0582,0.0693,0.072,0.0708,0.0644,0.0607,0.0478,0.0479,0.0249,0.0348,0.0035,-0.0001,-0.0089,-0.0231,-0.0233,-0.0372,-0.0374,-0.0377,-0.0375,0,0,0,0,0]}]]